Newton, KS

12:50 PM CDT on May 26, 2017 (GMT -0500)
Newton City County

Weather History for KEWK - November, 2012

Change the Weather History Date:

Friday, November 2, 2012

  Actual Average Record
Temperature  
Mean Temperature 63 °F -  
Max Temperature 78 °F 56 °F 78 °F (2012)
Min Temperature 48 °F 38 °F 24 °F (2006)
Degree Days  
Heating Degree Days 2    
Growing Degree Days 13 (Base 50)    
Moisture  
Dew Point 39 °F    
Average Humidity 49    
Maximum Humidity 66    
Minimum Humidity 24    
Precipitation  
Precipitation 0.00 in - - ()
Sea Level Pressure  
Sea Level Pressure 29.88 in    
Wind  
Wind Speed 11 mph (ESE)    
Max Wind Speed 21 mph    
Max Gust Speed 26 mph    
Visibility 10 miles    
Events      
Averages and records for this station are not official NWS values.
T = Trace of Precipitation, MM = Missing Value Source: NWS Daily Summary

Daily Weather History Graph

Daily Weather History Graph

Search for Another Location

Airport or City:

Trip Planner

Search our weather history database for the weather conditions in past years. The results will help you decide how hot, cold, wet, or windy it might be!

Date:

Astronomy

Nov. 02, 2012 Rise Set
Actual Time 7:56 AM CDT 6:28 PM CDT
Civil Twilight 7:29 AM CDT 6:55 PM CDT
Nautical Twilight 6:57 AM CDT 7:26 PM CDT
Astronomical Twilight 6:27 AM CDT 7:57 PM CDT
Moon 9:18 PM CDT (11/2) 11:15 AM CDT (11/2)
Length of Visible Light 11h 26m
Length of Day
10h 31m
Waning Gibbous, 87% of the Moon is Illuminated
Nov 2
Waning Gibbous
Nov 6
Last Quarter
Nov 13
New
Nov 20
First Quarter
Nov 28
Full

Hourly Weather History & Observations

Time (CDT) Temp. Dew Point Humidity Pressure Visibility Wind Dir Wind Speed Gust Speed Precip Events Conditions
12:15 AM 57.2 °F 37.4 °F 48% 29.94 in 10.0 mi East 6.9 mph - N/A   Clear
12:35 AM 51.8 °F 35.6 °F 54% 29.94 in 10.0 mi East 8.1 mph - N/A   Clear
12:55 AM 50.0 °F 35.6 °F 58% 29.94 in 10.0 mi East 6.9 mph - N/A   Clear
1:15 AM 53.6 °F 37.4 °F 54% 29.94 in 10.0 mi ESE 9.2 mph - N/A   Clear
1:35 AM 53.6 °F 37.4 °F 54% 29.93 in 10.0 mi ESE 10.4 mph - N/A   Clear
1:55 AM 53.6 °F 37.4 °F 54% 29.93 in 10.0 mi ESE 9.2 mph - N/A   Clear
2:15 AM 53.6 °F 37.4 °F 54% 29.92 in 10.0 mi ESE 10.4 mph - N/A   Clear
2:35 AM 51.8 °F 37.4 °F 58% 29.92 in 10.0 mi ESE 8.1 mph - N/A   Clear
2:55 AM 50.0 °F 35.6 °F 58% 29.92 in 10.0 mi East 5.8 mph - N/A   Clear
3:15 AM 50.0 °F 37.4 °F 62% 29.91 in 10.0 mi East 8.1 mph - N/A   Clear
3:35 AM 51.8 °F 37.4 °F 58% 29.91 in 10.0 mi East 8.1 mph - N/A   Clear
3:55 AM 48.2 °F 37.4 °F 66% 29.92 in 10.0 mi East 6.9 mph - N/A   Clear
4:15 AM 48.2 °F 37.4 °F 66% 29.92 in 10.0 mi East 6.9 mph - N/A   Clear
4:35 AM 48.2 °F 37.4 °F 66% 29.91 in 10.0 mi East 6.9 mph - N/A   Clear
4:55 AM 51.8 °F 37.4 °F 58% 29.90 in 10.0 mi ESE 9.2 mph - N/A   Clear
5:15 AM 50.0 °F 37.4 °F 62% 29.90 in 10.0 mi ESE 10.4 mph - N/A   Clear
5:35 AM 48.2 °F 37.4 °F 66% 29.90 in 10.0 mi ESE 11.5 mph - N/A   Clear
5:55 AM 50.0 °F 37.4 °F 62% 29.89 in 10.0 mi ESE 10.4 mph - N/A   Clear
6:15 AM 48.2 °F 37.4 °F 66% 29.89 in 10.0 mi SE 10.4 mph - N/A   Clear
6:35 AM 48.2 °F 37.4 °F 66% 29.88 in 10.0 mi ESE 11.5 mph - N/A   Clear
6:55 AM 48.2 °F 37.4 °F 66% 29.88 in 10.0 mi SE 11.5 mph - N/A   Clear
7:15 AM 48.2 °F 37.4 °F 66% 29.88 in 10.0 mi ESE 11.5 mph - N/A   Clear
7:35 AM 48.2 °F 37.4 °F 66% 29.87 in 10.0 mi SE 11.5 mph - N/A   Clear
7:55 AM 50.0 °F 37.4 °F 62% 29.87 in 10.0 mi SE 12.7 mph - N/A   Clear
8:15 AM 50.0 °F 37.4 °F 62% 29.87 in 10.0 mi SE 13.8 mph - N/A   Clear
8:35 AM 50.0 °F 39.2 °F 66% 29.86 in 10.0 mi SE 13.8 mph - N/A   Clear
8:55 AM 51.8 °F 39.2 °F 62% 29.87 in 10.0 mi SE 13.8 mph - N/A   Clear
9:15 AM 51.8 °F 39.2 °F 62% 29.87 in 10.0 mi SE 16.1 mph - N/A   Clear
9:35 AM 53.6 °F 41.0 °F 62% 29.87 in 10.0 mi SE 15.0 mph - N/A   Clear
9:55 AM 55.4 °F 42.8 °F 63% 29.87 in 10.0 mi SE 15.0 mph 20.7 mph N/A   Clear
10:15 AM 57.2 °F 42.8 °F 59% 29.87 in 10.0 mi SE 17.3 mph - N/A   Clear
10:35 AM 60.8 °F 42.8 °F 52% 29.86 in 10.0 mi SE 18.4 mph - N/A   Clear
10:55 AM 60.8 °F 44.6 °F 55% 29.86 in 10.0 mi SSE 13.8 mph 19.6 mph N/A   Clear
11:15 AM 62.6 °F 44.6 °F 52% 29.85 in 10.0 mi SSE 16.1 mph - N/A   Clear
11:35 AM 64.4 °F 44.6 °F 49% 29.85 in 10.0 mi SSE 12.7 mph - N/A   Clear
11:55 AM 66.2 °F 44.6 °F 46% 29.85 in 10.0 mi South 16.1 mph - N/A   Clear
12:15 PM 68.0 °F 44.6 °F 43% 29.84 in 10.0 mi South 16.1 mph - N/A   Clear
12:35 PM 71.6 °F 44.6 °F 38% 29.82 in 10.0 mi South 18.4 mph 21.9 mph N/A   Clear
12:55 PM 71.6 °F 44.6 °F 38% 29.81 in 10.0 mi South 16.1 mph 23.0 mph N/A   Clear
1:15 PM 73.4 °F 44.6 °F 36% 29.81 in 10.0 mi South 16.1 mph 21.9 mph N/A   Clear
1:35 PM 73.4 °F 44.6 °F 36% 29.81 in 10.0 mi SSW 12.7 mph - N/A   Clear
1:55 PM 75.2 °F 42.8 °F 31% 29.81 in 10.0 mi SSW 13.8 mph 20.7 mph N/A   Clear
2:15 PM 77.0 °F 44.6 °F 32% 29.80 in 10.0 mi SW 13.8 mph - N/A   Clear
2:35 PM 77.0 °F 44.6 °F 32% 29.80 in 10.0 mi SSW 15.0 mph 19.6 mph N/A   Clear
2:55 PM 78.8 °F 41.0 °F 26% 29.80 in 10.0 mi SSW 17.3 mph 21.9 mph N/A   Clear
3:15 PM 77.0 °F 39.2 °F 26% 29.80 in 10.0 mi West 10.4 mph - N/A   Clear
3:35 PM 77.0 °F 39.2 °F 26% 29.80 in 10.0 mi West 9.2 mph - N/A   Clear
3:55 PM 77.0 °F 39.2 °F 26% 29.80 in 10.0 mi West 11.5 mph - N/A   Clear
4:15 PM 75.2 °F 39.2 °F 27% 29.80 in 10.0 mi West 8.1 mph - N/A   Clear
4:35 PM 77.0 °F 39.2 °F 26% 29.80 in 10.0 mi West 9.2 mph - N/A   Clear
4:55 PM 75.2 °F 37.4 °F 25% 29.80 in 10.0 mi WNW 11.5 mph - N/A   Clear
5:15 PM 75.2 °F 35.6 °F 24% 29.81 in 10.0 mi NW 10.4 mph - N/A   Clear
5:35 PM 71.6 °F 35.6 °F 27% 29.82 in 10.0 mi NW 17.3 mph 23.0 mph N/A   Clear
5:55 PM 69.8 °F 39.2 °F 33% 29.83 in 10.0 mi NW 12.7 mph 21.9 mph N/A   Clear
6:15 PM 66.2 °F 39.2 °F 37% 29.84 in 10.0 mi NNW 11.5 mph 17.3 mph N/A   Clear
6:35 PM 64.4 °F 37.4 °F 37% 29.84 in 10.0 mi NNW 9.2 mph - N/A   Clear
6:55 PM 64.4 °F 37.4 °F 37% 29.86 in 10.0 mi NNW 8.1 mph - N/A   Clear
7:15 PM 62.6 °F 39.2 °F 42% 29.87 in 10.0 mi North 16.1 mph - N/A   Clear
7:35 PM 60.8 °F 39.2 °F 45% 29.88 in 10.0 mi North 16.1 mph 23.0 mph N/A   Clear
7:55 PM 59.0 °F 39.2 °F 48% 29.89 in 10.0 mi North 15.0 mph 20.7 mph N/A   Clear
8:15 PM 59.0 °F 39.2 °F 48% 29.89 in 10.0 mi North 15.0 mph - N/A   Clear
8:35 PM 57.2 °F 39.2 °F 51% 29.91 in 10.0 mi North 13.8 mph - N/A   Clear
8:55 PM 57.2 °F 39.2 °F 51% 29.92 in 10.0 mi North 15.0 mph - N/A   Clear
9:15 PM 55.4 °F 37.4 °F 51% 29.93 in 10.0 mi North 15.0 mph - N/A   Clear
9:35 PM 55.4 °F 37.4 °F 51% 29.95 in 10.0 mi NNW 13.8 mph - N/A   Clear
9:55 PM 55.4 °F 37.4 °F 51% 29.95 in 10.0 mi North 17.3 mph 23.0 mph N/A   Clear
10:15 PM 55.4 °F 37.4 °F 51% 29.97 in 10.0 mi North 19.6 mph 26.5 mph N/A   Clear
10:35 PM 53.6 °F 35.6 °F 51% 29.97 in 10.0 mi North 19.6 mph 26.5 mph N/A   Clear
10:55 PM 53.6 °F 35.6 °F 51% 29.98 in 10.0 mi North 18.4 mph 23.0 mph N/A   Clear
11:15 PM 51.8 °F 33.8 °F 50% 29.99 in 10.0 mi North 20.7 mph 24.2 mph N/A   Clear
11:35 PM 51.8 °F 33.8 °F 50% 29.99 in 10.0 mi North 18.4 mph 26.5 mph N/A   Clear
11:55 PM 50.0 °F 32.0 °F 50% 30.00 in 10.0 mi North 18.4 mph 25.3 mph N/A   Clear